Weather History for West Plains, MO

Change the Weather History Date:

Saturday, May 24, 2014

  Actual Average Record
Temperature  
Mean Temperature 71 °F 68 °F  
Max Temperature 79 °F 78 °F 94 °F (2000)
Min Temperature 63 °F 57 °F 39 °F (1961)
Degree Days  
Heating Degree Days 0 2  
Month to date heating degree days 105 74  
Since 1 July heating degree days 4857 4336  
Cooling Degree Days 6 4  
Month to date cooling degree days 91 61  
Year to date cooling degree days 100 89  
Growing Degree Days 20 (Base 50)    
Moisture  
Dew Point 63 °F    
Average Humidity 80    
Maximum Humidity 93    
Minimum Humidity 67    
Precipitation  
Precipitation 0.10 in 0.12 in 1.15 in (1949)
Month to date precipitation 2.78 4.02  
Year to date precipitation 11.95 18.35  
Sea Level Pressure  
Sea Level Pressure 30.07 in    
Wind  
Wind Speed 4 mph (ENE)    
Max Wind Speed 13 mph    
Max Gust Speed 18 mph    
Visibility 9 miles    
Events Rain , Thunderstorm    
T = Trace of Precipitation, MM = Missing Value Source: NWS Daily Summary

Daily Weather History Graph

Daily Weather History Graph

Search for Another Location

Airport:

Trip Planner

Search our weather history database for the weather conditions in past years. The results will help you decide how hot, cold, wet, or windy it might be!

Date:

Astronomy

May. 24, 2014 Rise Set
Actual Time 5:53 AM CDT 8:15 PM CDT
Civil Twilight 5:23 AM CDT 8:45 PM CDT
Nautical Twilight 4:47 AM CDT 9:22 PM CDT
Astronomical Twilight 4:07 AM CDT 10:02 PM CDT
Moon 3:16 AM CDT (5/24) 4:19 PM CDT (5/24)
Length of Visible Light 15h 21m
Length of Day
14h 22m
Waning Crescent, 18% of the Moon is Illuminated
May 24
Waning Crescent
May 28
New
Jun 5
First Quarter
Jun 12
Full
Jun 19
Last Quarter

Hourly Weather History & Observations

Time (CDT) Temp. Dew Point Humidity Pressure Visibility Wind Dir Wind Speed Gust Speed Precip Events Conditions
12:53 AM 70.0 °F 62.1 °F 76% 30.07 in 10.0 mi East 3.5 mph - N/A   Overcast
1:53 AM 69.1 °F 61.0 °F 75% 30.06 in 10.0 mi East 3.5 mph - N/A   Overcast
2:53 AM 68.0 °F 59.0 °F 73% 30.04 in 10.0 mi Calm Calm - N/A   Clear
3:53 AM 64.9 °F 60.1 °F 84% 30.05 in 10.0 mi NE 3.5 mph - N/A   Clear
4:53 AM 64.9 °F 59.0 °F 81% 30.07 in 10.0 mi ENE 3.5 mph - N/A   Scattered Clouds
5:53 AM 64.9 °F 57.9 °F 78% 30.09 in 10.0 mi Calm Calm - N/A   Mostly Cloudy
6:53 AM 66.0 °F 57.9 °F 75% 30.09 in 10.0 mi East 5.8 mph - N/A   Mostly Cloudy
7:53 AM 66.0 °F 59.0 °F 78% 30.10 in 10.0 mi East 6.9 mph - N/A   Mostly Cloudy
8:53 AM 69.1 °F 60.1 °F 73% 30.11 in 10.0 mi East 5.8 mph - N/A   Partly Cloudy
9:53 AM 72.0 °F 62.1 °F 71% 30.10 in 10.0 mi Variable 6.9 mph - N/A   Partly Cloudy
10:53 AM 75.0 °F 64.0 °F 69% 30.09 in 10.0 mi ESE 5.8 mph - N/A   Clear
11:53 AM 77.0 °F 66.0 °F 69% 30.09 in 10.0 mi ENE 4.6 mph - N/A   Mostly Cloudy
12:36 PM 78.1 °F 66.0 °F 66% 30.11 in 10.0 mi ENE 5.8 mph - N/A   Mostly Cloudy
12:50 PM 78.8 °F 66.2 °F 65% 30.11 in 10.0 mi ENE 10.4 mph - N/A   Mostly Cloudy
1:53 PM 78.1 °F 66.0 °F 66% 30.04 in 10.0 mi ESE 5.8 mph - N/A Thunderstorm Mostly Cloudy
2:15 PM 77.0 °F 64.9 °F 66% 30.07 in 10.0 mi ESE 6.9 mph - N/A Thunderstorm Thunderstorm
2:53 PM 70.0 °F 64.9 °F 84% 30.06 in 7.0 mi WSW 3.5 mph - 0.01 in Rain , Thunderstorm Light Thunderstorms and Rain
3:17 PM 68.0 °F 63.0 °F 84% 30.08 in 10.0 mi NNW 6.9 mph - 0.00 in Thunderstorm Mostly Cloudy
3:53 PM 69.1 °F 64.0 °F 84% 30.04 in 10.0 mi North 4.6 mph - 0.00 in Thunderstorm Partly Cloudy
4:00 PM 70.0 °F 64.0 °F 81% 30.08 in 10.0 mi North 5.8 mph - N/A   Partly Cloudy
4:21 PM 70.0 °F 64.9 °F 84% 30.08 in 10.0 mi NE 6.9 mph - N/A Thunderstorm Mostly Cloudy
4:36 PM 71.1 °F 64.9 °F 81% 30.09 in 10.0 mi South 5.8 mph - N/A Thunderstorm Thunderstorm
4:48 PM 69.8 °F 64.4 °F 83% 30.09 in 2.5 mi SW 12.7 mph 17.3 mph 0.00 in Rain , Thunderstorm Thunderstorms and Rain
4:53 PM 66.9 °F 62.1 °F 84% 30.06 in 1.0 mi West 5.8 mph 17.3 mph 0.01 in Rain , Thunderstorm Heavy Thunderstorms and Rain
4:59 PM 66.0 °F 63.0 °F 90% 30.09 in 0.8 mi NNW 6.9 mph - 0.01 in Rain , Thunderstorm Heavy Thunderstorms and Rain
5:07 PM 66.0 °F 63.0 °F 90% 30.08 in 3.0 mi North 5.8 mph - 0.02 in Rain , Thunderstorm Light Rain
5:35 PM 66.9 °F 64.0 °F 90% 30.07 in 9.0 mi NE 4.6 mph - 0.04 in Thunderstorm Thunderstorm
5:50 PM 68.0 °F 64.4 °F 88% 30.06 in 9.0 mi ENE 5.8 mph - 0.06 in Thunderstorm Partly Cloudy
5:53 PM 69.1 °F 66.0 °F 90% 30.04 in 9.0 mi NE 5.8 mph - 0.06 in   Partly Cloudy
6:00 PM 69.1 °F 66.0 °F 90% 30.07 in 9.0 mi NE 8.1 mph - N/A Thunderstorm Partly Cloudy
6:15 PM 69.1 °F 64.9 °F 87% 30.06 in 10.0 mi ENE 6.9 mph - 0.01 in   Partly Cloudy
6:53 PM 68.0 °F 63.0 °F 84% 30.03 in 10.0 mi NE 4.6 mph - 0.02 in   Clear
7:53 PM 66.9 °F 63.0 °F 87% 30.04 in 10.0 mi NE 4.6 mph - N/A   Clear
8:53 PM 64.0 °F 61.0 °F 90% 30.05 in 10.0 mi ENE 4.6 mph - N/A   Clear
10:53 PM 63.0 °F 61.0 °F 93% 30.07 in 6.0 mi ENE 4.6 mph - N/A   Clear
11:53 PM 64.0 °F 61.0 °F 90% 30.05 in 8.0 mi ENE 3.5 mph - N/A   Scattered Clouds